Wallops Island, VA

9:36 PM EST on December 15, 2019 (GMT -0500)
Wallops Flight Facility

Weather History for KWAL - October, 2019

Change the Weather History Date:

Saturday, October 26, 2019

  Actual Average Record
Temperature  
Mean Temperature 60 °F 56 °F  
Max Temperature 66 °F 65 °F 76 °F (1984)
Min Temperature 54 °F 47 °F 33 °F (2013)
Degree Days  
Heating Degree Days 4    
Month to date heating degree days 102  
Since 1 July heating degree days 111  
Cooling Degree Days 0    
Month to date cooling degree days 53  
Year to date cooling degree days 1800  
Growing Degree Days 10 (Base 50)    
Moisture  
Dew Point 56 °F    
Average Humidity 85    
Maximum Humidity 100    
Minimum Humidity 52    
Precipitation  
Precipitation 0.00 in 0.10 in 1.31 in (1975)
Month to date precipitation 7.25 2.62  
Year to date precipitation 41.58 33.99  
Sea Level Pressure  
Sea Level Pressure 30.18 in    
Wind  
Wind Speed 4 mph ()    
Max Wind Speed 15 mph    
Max Gust Speed 22 mph    
Visibility 10.0 miles    
Events      
T = Trace of Precipitation, MM = Missing Value Source: Averaged Metar Reports

Daily Weather History Graph

Daily Weather History Graph

Search for Another Location

Airport or City:

Astronomy

Oct. 26, 2019 Rise Set
Actual Time 7:21 AM EDT 6:10 PM EDT
Civil Twilight 6:54 AM EDT 6:37 PM EDT
Nautical Twilight 6:23 AM EDT 7:07 PM EDT
Astronomical Twilight 5:52 AM EDT 7:38 PM EDT
Moon 5:16 AM EDT (10/26) 5:41 PM EDT (10/26)
Length of Visible Light 11h 42m
Length of Day
10h 49m
Waning Crescent, 3% of the Moon is Illuminated
Oct 26
Waning Crescent
Oct 27
New
Nov 4
First Quarter
Nov 12
Full
Nov 19
Last Quarter

Hourly Weather History & Observations

Time (EDT) Temp. Dew Point Humidity Pressure Visibility Wind Dir Wind Speed Gust Speed Precip Events Conditions
12:54 AM 61.0 °F 55.0 °F 81% 30.19 in 10.0 mi West 4.6 mph - N/A   Clear
1:54 AM 59.0 °F 55.9 °F 90% 30.17 in 10.0 mi Calm Calm - N/A   Clear
2:54 AM 57.9 °F 55.9 °F 93% 30.17 in 10.0 mi Calm Calm - N/A   Clear
3:54 AM 55.9 °F 55.9 °F 100% 30.17 in 10.0 mi Calm Calm - N/A   Clear
4:54 AM 57.9 °F 57.0 °F 97% 30.18 in 10.0 mi NNW 3.5 mph - N/A   Partly Cloudy
5:54 AM 57.0 °F 55.9 °F 96% 30.19 in 10.0 mi Calm Calm - N/A   Clear
6:54 AM 55.0 °F 55.0 °F 100% 30.17 in 10.0 mi Calm Calm - N/A   Partly Cloudy
7:54 AM 55.9 °F 54.0 °F 93% 30.18 in 10.0 mi North 3.5 mph - N/A   Clear
8:54 AM 61.0 °F 55.0 °F 81% 30.21 in 10.0 mi Calm Calm - N/A   Partly Cloudy
9:54 AM 64.0 °F 53.1 °F 67% 30.20 in 10.0 mi ENE 6.9 mph - N/A   Clear
10:54 AM 66.0 °F 48.9 °F 54% 30.22 in 10.0 mi ENE 9.2 mph - N/A   Clear
11:54 AM 64.9 °F 55.0 °F 70% 30.22 in 10.0 mi East 4.6 mph - N/A   Clear
12:54 PM 66.0 °F 55.9 °F 70% 30.20 in 10.0 mi ENE 10.4 mph - N/A   Clear
1:54 PM 64.9 °F 55.9 °F 73% 30.18 in 10.0 mi ENE 11.5 mph - N/A   Clear
2:54 PM 64.0 °F 57.9 °F 80% 30.17 in 10.0 mi ENE 12.7 mph - N/A   Clear
3:54 PM 64.0 °F 57.0 °F 78% 30.17 in 10.0 mi East 11.5 mph - N/A   Clear
4:54 PM 63.0 °F 55.9 °F 78% 30.17 in 10.0 mi ENE 11.5 mph - N/A   Clear
5:54 PM 61.0 °F 57.0 °F 87% 30.18 in 10.0 mi East 8.1 mph - N/A   Clear
6:54 PM 61.0 °F 57.9 °F 90% 30.17 in 10.0 mi East 10.4 mph - N/A   Clear
7:54 PM 61.0 °F 59.0 °F 93% 30.17 in 10.0 mi East 8.1 mph - N/A   Clear
8:54 PM 62.1 °F 59.0 °F 90% 30.16 in 10.0 mi East 10.4 mph - N/A   Clear
9:54 PM 62.1 °F 60.1 °F 93% 30.16 in 10.0 mi ESE 9.2 mph - N/A   Clear
10:54 PM 63.0 °F 60.1 °F 90% 30.15 in 10.0 mi East 6.9 mph - N/A   Clear
11:54 PM 63.0 °F 60.1 °F 90% 30.13 in 10.0 mi East 8.1 mph - N/A   Clear